Location: ????????
(55.6189°N, 38.3031°E)
Time: 07:50:48
(UTC+00:00)

Cosmos 839 Rocket - Pass Details

Date: 15 November 2019
Orbit: 968 x 2084 km, 65.9° (Epoch: 13 December)

Event Time Altitude Azimuth Distance (km) Brightness Sun altitude
Exits shadow 02:39:49 - 219° (SW) 3,284 6.4 -19.5°
Reaches altitude 10° 02:40:32 10° 219° (SW) 3,016 6.2 -19.4°
Maximum altitude 02:47:25 83° 133° (SE) 1,027 4.1 -18.4°
Drops below altitude 10° 02:53:36 10° 46° (NE) 2,721 6.9 -17.6°
Sets 02:56:06 0° 46° (NE) 3,676 7.6 -17.2°
